This is the latest recevied weather packets stored in our database for station/object EA5AER-5. If no packets are shown the sender has not sent any weather packets the latest 10 day(s).
| Time | Temp. | Humidity | Pressure | Rain* | Wind** | Luminosity | Snow |
|---|---|---|---|---|---|---|---|
| 1777770902 | 17.22° C | 84% | 1014.5 hPa | 0 mm | - | 0 W/m² | - |
| 1777769783 | 17.22° C | 84% | 1014.5 hPa | 0 mm | - | 0 W/m² | - |
| 1777768596 | 16.67° C | 84% | 1014.6 hPa | 0 mm | - | 0 W/m² | - |
| 1777767379 | 17.22° C | 84% | 1014.8 hPa | 0 mm | - | 0 W/m² | - |
| 1777766168 | 17.78° C | 84% | 1015.1 hPa | 0 mm | - | 0 W/m² | - |
| 1777765007 | 17.78° C | 82% | 1014.8 hPa | 0 mm | - | 0 W/m² | - |
| 1777763739 | 17.78° C | 83% | 1015 hPa | 0 mm | - | 0 W/m² | - |
| 1777762560 | 18.33° C | 83% | 1015.4 hPa | 0 mm | - | 0 W/m² | - |
| 1777761399 | 18.33° C | 83% | 1015.4 hPa | 0 mm | - | 0 W/m² | - |
| 1777760229 | 18.33° C | 83% | 1015.4 hPa | 0 mm | - | 0 W/m² | - |
| 1777759093 | 18.33° C | 84% | 1015.3 hPa | 0 mm | - | 0 W/m² | - |
| 1777758001 | 18.33° C | 84% | 1015.3 hPa | 0 mm | - | 0 W/m² | - |
| 1777756784 | 18.33° C | 84% | 1014.8 hPa | 0 mm | - | 0 W/m² | - |
| 1777755499 | 18.33° C | 84% | 1014.8 hPa | 0 mm | - | 0 W/m² | - |
| 1777754209 | 18.33° C | 84% | 1014.8 hPa | 0 mm | - | 0 W/m² | - |
| 1777752902 | 18.33° C | 85% | 1015 hPa | 0 mm | - | 0 W/m² | - |
| 1777751689 | 18.33° C | 84% | 1015 hPa | 0 mm | - | 0 W/m² | - |
| 1777750459 | 18.33° C | 84% | 1014.8 hPa | 0 mm | - | 0 W/m² | - |
| 1777749343 | 18.33° C | 84% | 1015 hPa | 0 mm | - | 9 W/m² | - |
| 1777748241 | 18.33° C | 84% | 1015 hPa | 0 mm | - | 9 W/m² | - |
| 1777747029 | 18.33° C | 84% | 1015 hPa | 0 mm | - | 9 W/m² | - |
| 1777745819 | 18.89° C | 78% | 1015.5 hPa | 0 mm | - | 11 W/m² | - |
| 1777744550 | 19.44° C | 78% | 1015.3 hPa | 0 mm | - | 53 W/m² | - |
| 1777743309 | 19.44° C | 78% | 1015.3 hPa | 0 mm | - | 53 W/m² | - |
| 1777741994 | 20.56° C | 75% | 1015.6 hPa | 0 mm | - | 230 W/m² | - |
* Rain latest hour (hover to see other rain measurements)
** Current wind speed in m/s (hover to see current wind gust speed)